Regional Weather Roundup
Issued by NWS

Home | Current Version | Previous Version | Text Only | Print | Product List | Glossary Off
Versions: 1 2 3 4 5 6 7 8 9 10 11 12 13 14 15 16 17 18 19 20 21 22 23 24 25 26 27 28 29 30 31 32 33 34 35 36 37 38 39 40 41 42 43 44 45 46 47 48 49 50

000
ASUS43 KOAX 220402
RWRNE

WEATHER ROUNDUP FOR NEBRASKA
NATIONAL WEATHER SERVICE OMAHA NE
1100 PM CDT MON JUL 21 2014

NOTES: SATELLITE DATA IS BEING USED TO AUGMENT CLOUD COVER ABOVE
       12000 FEET.
       "FAIR" INDICATES FEW OR NO CLOUDS BELOW 12,000 FEET WITH NO
       SIGNIFICANT WEATHER AND/OR OBSTRUCTIONS TO VISIBILITY.

  * THESE STATIONS DO NOT REPORT WEATHER SUCH AS RAIN...SNOW OR FOG.

NEZ001>004-019>022-054>056-220500-
NEBRASKA PANHANDLE

CITY           SKY/WX    TMP DP  RH WIND       PRES   REMARKS
SCOTTSBLUFF    CLEAR     71  58  63 E7        30.02R
ALLIANCE       PTCLDY    72  52  49 S5        30.01R
CHADRON        PTCLDY    90  47  22 N10       29.98R
KIMBALL        PTCLDY    74  46  37 SE10      30.11R
SIDNEY         PTCLDY    79  49  34 E13       30.10R
$$

NEZ057>060-069>072-079>082-220500-
SOUTHWEST NEBRASKA

CITY           SKY/WX    TMP DP  RH WIND       PRES   REMARKS
NORTH PLATTE   PTCLDY    79  59  50 W7        30.00R
IMPERIAL       CLEAR     80  60  50 S10       30.04R
LEXINGTON      CLEAR     78  66  67 S8        29.97R
MCCOOK         PTCLDY    78  63  59 S6        29.99R
OGALLALA       MOCLDY    76  57  52 S5        30.03R
$$

NEZ005>010-023>029-035>040-094-220500-
NORTH CENTRAL NEBRASKA

CITY           SKY/WX    TMP DP  RH WIND       PRES   REMARKS
VALENTINE      PTCLDY    81  61  50 SW10      29.90R
AINSWORTH      PTCLDY    79  59  49 S7        29.90S
BROKEN BOW     PTCLDY    73  66  78 CALM      29.94R
O`NEILL        CLEAR     78  68  70 SW6       29.87R
THEDFORD       MOCLDY    82  53  36 CALM      29.97R
$$

NEZ041-046>049-061>064-073>077-083>087-220500-
SOUTH CENTRAL NEBRASKA

CITY           SKY/WX    TMP DP  RH WIND       PRES   REMARKS
GRAND ISLAND   MOCLDY    88  73  61 S16       29.92R HX  95
HASTINGS       PTCLDY    86  70  58 S9        29.94R HX  90
HEBRON         PTCLDY    88  68  51 S10G17    29.93R HX  91
HOLDREGE       MOCLDY    82  71  69 S5        29.98R
KEARNEY *      MOCLDY    82  73  74 SW10      29.96R
YORK           MOCLDY    84  73  70 S10       29.91R HX  91
$$

NEZ011>018-030>034-042>045-220500-
NORTHEAST NEBRASKA

CITY           SKY/WX    TMP DP  RH WIND       PRES   REMARKS
NORFOLK        MOCLDY    84  77  79 S9        29.84R HX  94
ALBION         MOCLDY    80  73  79 CALM      29.88R
BLAIR          CLOUDY    86  68  55 S9        29.86S
COLUMBUS *     CLOUDY    90  72  55 SW14      29.87R HX  96
FREMONT        CLOUDY    89  73  58 S7        29.85R HX  97
TEKAMAH        CLOUDY    83  78  85 S6        29.83R HX  93
WAYNE          MOCLDY    82  79  91 SW5       29.84R HX  92
$$

NEZ050>053-065>068-078-088>093-220500-
SOUTHEAST NEBRASKA

CITY           SKY/WX    TMP DP  RH WIND       PRES   REMARKS
LINCOLN        MOCLDY    91  69  48 SW18      29.87R HX  96
OMAHA EPPLEY   CLOUDY    87  76  69 SE13      29.85S HX  97
BEATRICE       PTCLDY    82  71  70 S14       29.91R
FALLS CITY     PTCLDY    85  74  69 S14G21    29.90S HX  92
NEBRASKA CITY  PTCLDY    82  73  74 S12       29.88S
PLATTSMOUTH    MOCLDY    84  74  70 S9        29.87R HX  91
$$

NEZ044-045-051>053-067-220500-
OMAHA AREA

CITY           SKY/WX    TMP DP  RH WIND       PRES   REMARKS
OMAHA EPPLEY   CLOUDY    87  76  69 SE13      29.85S HX  97
BLAIR          CLOUDY    86  68  55 S9        29.86S
FREMONT        CLOUDY    89  73  58 S7        29.85R HX  97
MILLARD        CLOUDY    86  76  72 SE5       29.86R HX  96
OFFUTT AFB     CLOUDY    84  80  87 SE2       29.86S HX  98
PLATTSMOUTH    MOCLDY    84  74  70 S9        29.87R HX  91
WAHOO          FAIR      85  73  67 SW5       29.85S HX  92
$$



USA.gov is the U.S. government's official web portal to all federal, state and local government web resources and services.